Valley City, ND

4:11 PM CST on February 21, 2018 (GMT -0600)
Valley City

Weather History for KBAC - December, 2013

Change the Weather History Date:

Monday, December 16, 2013

  Actual Average (KJMS) Record (KJMS)
Temperature  
Mean Temperature 16 °F -  
Max Temperature 32 °F 23 °F 60 °F (1962)
Min Temperature 1 °F 5 °F -22 °F (2008)
Degree Days  
Heating Degree Days 48    
Moisture  
Dew Point 18 °F    
Average Humidity 90    
Maximum Humidity 100    
Minimum Humidity 75    
Precipitation  
Precipitation 0.10 in - - ()
Sea Level Pressure  
Sea Level Pressure 29.84 in    
Wind  
Wind Speed 16 mph (WSW)    
Max Wind Speed 28 mph    
Max Gust Speed 39 mph    
Visibility 9 miles    
Events Snow    
Averages and records for this station are not official NWS values.
T = Trace of Precipitation, MM = Missing Value Source: NWS Daily Summary

Daily Weather History Graph

Daily Weather History Graph

Search for Another Location

Airport or City:

Trip Planner

Search our weather history database for the weather conditions in past years. The results will help you decide how hot, cold, wet, or windy it might be!

Date:

Astronomy

Dec. 16, 2013 Rise Set
Actual Time 8:11 AM CST 4:43 PM CST
Civil Twilight 7:36 AM CST 5:19 PM CST
Nautical Twilight 6:57 AM CST 5:58 PM CST
Astronomical Twilight 6:20 AM CST 6:35 PM CST
Moon 4:39 PM CST (12/16) 7:17 AM CST (12/16)
Length of Visible Light 9h 42m
Length of Day
8h 32m
Full, 100% of the Moon is Illuminated
Dec 16
Full
Dec 17
Full
Dec 25
Last Quarter
Jan 1
New
Jan 7
First Quarter

Hourly Weather History & Observations

Time (CST) Temp. Windchill Dew Point Humidity Pressure Visibility Wind Dir Wind Speed Gust Speed Precip Events Conditions
12:15 AM 1.4 °F -19.4 °F -0.4 °F 92% 29.85 in 10.0 mi South 18.4 mph - N/A Snow Light Snow
12:35 AM 1.4 °F -16.1 °F -0.4 °F 92% 29.88 in 10.0 mi South 12.7 mph - N/A   Overcast
12:55 AM 1.4 °F -16.9 °F -0.4 °F 92% 29.85 in 10.0 mi South 13.8 mph - N/A   Overcast
1:15 AM 3.2 °F -13.9 °F -0.4 °F 85% 29.85 in 10.0 mi South 12.7 mph - N/A   Overcast
1:35 AM 3.2 °F -14.6 °F 1.4 °F 92% 29.86 in 10.0 mi South 13.8 mph - N/A   Overcast
1:55 AM 5.0 °F -11.6 °F 1.4 °F 85% 29.85 in 10.0 mi South 12.7 mph - N/A   Overcast
2:15 AM 6.8 °F -12.4 °F 3.2 °F 85% 29.82 in 5.0 mi South 18.4 mph - N/A Snow Light Snow
2:35 AM 6.8 °F -14.7 °F 5.0 °F 92% 29.76 in 4.0 mi South 24.2 mph 31.1 mph N/A Snow Light Snow
2:55 AM 6.8 °F -10.0 °F 5.0 °F 92% 29.80 in 6.0 mi South 13.8 mph 21.9 mph N/A Snow Light Snow
3:15 AM 8.6 °F -5.5 °F 6.8 °F 92% 29.85 in 4.0 mi SW 10.4 mph - N/A   Overcast
3:35 AM 8.6 °F -3.7 °F 6.8 °F 92% 29.86 in 2.0 mi WSW 8.1 mph - 0.01 in Snow Light Snow
4:15 AM 8.6 °F -7.0 °F 6.8 °F 92% 29.83 in 5.0 mi SSW 12.7 mph - N/A   Overcast
4:35 AM 8.6 °F -5.5 °F 6.8 °F 92% 29.83 in 10.0 mi SSW 10.4 mph - N/A   Overcast
4:55 AM 8.6 °F -7.0 °F 6.8 °F 92% 29.82 in 5.0 mi SW 12.7 mph - N/A Snow Light Snow
5:15 AM 10.4 °F -6.0 °F 8.6 °F 92% 29.81 in 7.0 mi SSW 15.0 mph - N/A Snow Light Snow
5:35 AM 10.4 °F -5.4 °F 8.6 °F 92% 29.81 in 2.5 mi SSW 13.8 mph - 0.01 in Snow Light Snow
5:55 AM 10.4 °F -4.8 °F 10.4 °F 100% 29.79 in 1.8 mi SSW 12.7 mph - 0.03 in Snow Light Snow
6:15 AM 12.2 °F -0.2 °F 10.4 °F 92% 29.79 in - SW 9.2 mph - N/A Snow Heavy Snow
6:35 AM 12.2 °F -2.5 °F 10.4 °F 92% 29.79 in - SSW 12.7 mph - 0.01 in Snow Heavy Snow
6:55 AM 10.4 °F -6.0 °F 10.4 °F 100% 29.79 in 10.0 mi SW 15.0 mph - 0.01 in   Mostly Cloudy
7:15 AM 14.0 °F -0.2 °F 10.4 °F 86% 29.80 in 10.0 mi SW 12.7 mph - N/A   Mostly Cloudy
7:35 AM 14.0 °F 3.9 °F 10.4 °F 86% 29.80 in 10.0 mi SW 6.9 mph - N/A   Overcast
7:55 AM 10.4 °F -4.8 °F 10.4 °F 100% 29.80 in 10.0 mi SSW 12.7 mph - N/A   Scattered Clouds
8:15 AM 12.2 °F -3.1 °F 10.4 °F 92% 29.81 in 10.0 mi WSW 13.8 mph - N/A   Clear
8:35 AM 15.8 °F 2.1 °F 15.8 °F 100% 29.81 in 10.0 mi WSW 12.7 mph - N/A   Clear
8:55 AM 15.8 °F 2.1 °F 15.8 °F 100% 29.82 in 10.0 mi WSW 12.7 mph - N/A   Clear
9:15 AM 17.6 °F 2.7 °F 17.6 °F 100% 29.82 in 10.0 mi WSW 16.1 mph - N/A   Clear
9:35 AM 19.4 °F 5.5 °F 17.6 °F 93% 29.83 in 10.0 mi West 15.0 mph - N/A   Clear
9:55 AM 21.2 °F 7.3 °F 19.4 °F 93% 29.84 in 10.0 mi West 16.1 mph - N/A   Clear
10:15 AM 21.2 °F 7.3 °F 19.4 °F 93% 29.85 in 10.0 mi West 16.1 mph - N/A   Clear
10:35 AM 23.0 °F 10.1 °F 21.2 °F 93% 29.86 in 10.0 mi West 15.0 mph - N/A   Clear
10:55 AM 23.0 °F 9.2 °F 21.2 °F 93% 29.85 in 10.0 mi West 17.3 mph - N/A   Clear
11:15 AM 24.8 °F 11.9 °F 23.0 °F 93% 29.86 in 10.0 mi West 16.1 mph - N/A   Clear
11:35 AM 26.6 °F 13.8 °F 23.0 °F 86% 29.87 in 10.0 mi West 17.3 mph - N/A   Clear
11:55 AM 26.6 °F 14.7 °F 23.0 °F 86% 29.87 in 10.0 mi West 15.0 mph - N/A   Clear
12:15 PM 26.6 °F 15.2 °F 23.0 °F 86% 29.87 in 10.0 mi West 13.8 mph - N/A   Clear
12:35 PM 26.6 °F 15.7 °F 23.0 °F 86% 29.86 in 10.0 mi West 12.7 mph - N/A   Clear
12:55 PM 28.4 °F 17.0 °F 23.0 °F 80% 29.86 in 10.0 mi West 15.0 mph - N/A   Clear
1:15 PM 28.4 °F 16.2 °F 23.0 °F 80% 29.85 in 10.0 mi West 17.3 mph - N/A   Clear
1:35 PM 30.2 °F 18.9 °F 23.0 °F 75% 29.86 in 10.0 mi WNW 16.1 mph 20.7 mph N/A   Clear
1:55 PM 30.2 °F 19.3 °F 23.0 °F 75% 29.85 in 10.0 mi West 15.0 mph 21.9 mph N/A   Clear
2:15 PM 30.2 °F 18.1 °F 23.0 °F 75% 29.85 in 10.0 mi West 18.4 mph 24.2 mph N/A   Clear
2:35 PM 28.4 °F 15.4 °F 23.0 °F 80% 29.86 in 10.0 mi West 19.6 mph - N/A   Clear
2:55 PM 28.4 °F 14.7 °F 23.0 °F 80% 29.86 in 10.0 mi West 21.9 mph 26.5 mph N/A   Clear
3:15 PM 28.4 °F 15.1 °F 24.8 °F 86% 29.87 in 10.0 mi West 20.7 mph 27.6 mph N/A   Clear
3:35 PM 28.4 °F 14.7 °F 24.8 °F 86% 29.87 in 10.0 mi West 21.9 mph - N/A   Clear
3:55 PM 28.4 °F 15.1 °F 24.8 °F 86% 29.87 in 10.0 mi West 20.7 mph 27.6 mph N/A   Clear
4:15 PM 28.4 °F 15.8 °F 24.8 °F 86% 29.87 in 10.0 mi West 18.4 mph - N/A   Clear
4:35 PM 28.4 °F 15.4 °F 24.8 °F 86% 29.87 in 10.0 mi West 19.6 mph - N/A   Clear
4:55 PM 28.4 °F 15.4 °F 26.6 °F 93% 29.87 in 10.0 mi West 19.6 mph - N/A   Clear
5:15 PM 28.4 °F 15.1 °F 26.6 °F 93% 29.87 in 10.0 mi West 20.7 mph 25.3 mph N/A   Clear
5:35 PM 28.4 °F 15.8 °F 26.6 °F 93% 29.87 in 10.0 mi West 18.4 mph - N/A   Clear
5:55 PM 28.4 °F 14.7 °F 26.6 °F 93% 29.87 in 10.0 mi West 21.9 mph 25.3 mph N/A   Clear
6:15 PM 28.4 °F 14.4 °F 26.6 °F 93% 29.86 in 10.0 mi West 23.0 mph 28.8 mph N/A   Clear
6:35 PM 28.4 °F 14.7 °F 26.6 °F 93% 29.85 in 10.0 mi West 21.9 mph 26.5 mph N/A   Clear
6:55 PM 30.2 °F 16.8 °F 28.4 °F 93% 29.86 in 10.0 mi West 23.0 mph - N/A   Partly Cloudy
7:15 PM 32.0 °F 18.9 °F 28.4 °F 87% 29.86 in 10.0 mi West 24.2 mph 28.8 mph N/A   Mostly Cloudy
7:35 PM 32.0 °F 19.2 °F 28.4 °F 87% 29.85 in 10.0 mi West 23.0 mph 32.2 mph N/A Snow Light Snow
7:55 PM 32.0 °F 19.8 °F 28.4 °F 87% 29.86 in 10.0 mi West 20.7 mph 29.9 mph N/A Snow Light Snow
8:15 PM 30.2 °F 17.4 °F 28.4 °F 93% 29.85 in 10.0 mi West 20.7 mph 27.6 mph N/A   Partly Cloudy
8:35 PM 32.0 °F 19.8 °F 30.2 °F 93% 29.85 in 10.0 mi West 20.7 mph 25.3 mph N/A   Mostly Cloudy
8:55 PM 32.0 °F 20.5 °F 30.2 °F 93% 29.86 in 10.0 mi West 18.4 mph 26.5 mph N/A   Overcast
9:15 PM 32.0 °F 20.1 °F 30.2 °F 93% 29.85 in 10.0 mi West 19.6 mph 25.3 mph N/A   Overcast
9:35 PM 32.0 °F 18.9 °F 28.4 °F 87% 29.85 in 10.0 mi WNW 24.2 mph 31.1 mph N/A Snow Light Snow
9:55 PM 32.0 °F 18.9 °F 28.4 °F 87% 29.86 in 10.0 mi West 24.2 mph 31.1 mph N/A Snow Light Snow
10:15 PM 32.0 °F 20.1 °F 30.2 °F 93% 29.86 in 9.0 mi WNW 19.6 mph 31.1 mph N/A Snow Light Snow
10:35 PM 30.2 °F 16.5 °F 30.2 °F 100% 29.86 in 4.0 mi WNW 24.2 mph 33.4 mph 0.02 in Snow Light Snow
10:55 PM 30.2 °F 15.7 °F 28.4 °F 93% 29.86 in 8.0 mi WNW 27.6 mph 34.5 mph 0.02 in Snow Light Snow
11:15 PM 30.2 °F 16.5 °F 28.4 °F 93% 29.87 in 4.0 mi WNW 24.2 mph 39.1 mph N/A Snow Light Snow
11:55 PM 28.4 °F 13.3 °F 26.6 °F 93% 29.89 in 5.0 mi NW 27.6 mph 35.7 mph 0.03 in Snow Light Snow